shijiazhuang , China , ASIA

  • Monday
    December 10

      Cloudy

      19 °F

      No wind

       

  • Tuesday
    December 11

    Sunny  Sunny

    36 °F  21 °F

    Northwest  No wind

    3~4L    

  • Wednesday
    December 12

    Sunny  Sunny

    41 °F  23 °F

    South  North

        

  • Thursday
    December 13

    Sunny  Sunny

    39 °F  25 °F

    South  North

        

  • Friday
    December 14

    Cloudy  Cloudy

    41 °F  25 °F

    South  North

        

  • Saturday
    December 15

    Sunny  Sunny

    43 °F  27 °F

    Northwest  North

        

  • Sunday
    December 16

    Sunny  Sunny

    41 °F  27 °F

    Northwest  North

    3~4L    

Date   Weather Temperature Humidity Total_rain Visibility Wind
23:00 Cloudy 23°F 73.4% 0mm 999.9km Northwest  0.5m/s
02:00 Cloudy 23°F 64.7% 0mm 999.9km Northwest  0.6m/s
05:00 Cloudy 20°F 63.7% 0mm 999.9km Northwest  0.9m/s
08:00 Cloudy 23°F 59.8% 0mm 999.9km Northwest  0.9m/s
11:00 Sunny 35°F 50.8% 0mm 999.9km Northwest  1.5m/s
14:00 Sunny 35°F 47.9% 0mm 999.9km Northwest  2.0m/s
17:00 Sunny 35°F 53.3% 0mm 999.9km Northwest  1.2m/s
20:00 Sunny 29°F 65.1% 0mm 999.9km Northwest  0.5m/s
23:00 Sunny 26°F 58.5% 0mm 999.9km Northwest  0.6m/s
02:00 Sunny 24°F 62.3% 0mm 999.9km Northwest  0.6m/s
05:00 Sunny 22°F 64.9% 0mm 999.9km Northwest  0.8m/s
08:00 Sunny 30°F 68.1% 0mm 999.9km Northwest  1.0m/s
11:00 Sunny 37°F 52.9% 0mm 999.9km Southwest  1.8m/s
14:00 Sunny 41°F 50.1% 0mm 999.9km Southwest  2.7m/s
17:00 Sunny 34°F 57.1% 0mm 999.9km Southwest  1.4m/s
20:00 Sunny 28°F 45.6% 0mm 999.9km Southwest  0.5m/s
23:00 Sunny 26°F 55.3% 0mm 999.9km Northwest  0.3m/s
02:00 Sunny 25°F 53.8% 0mm 999.9km Northwest  0.9m/s
05:00 Sunny 23°F 53.5% 0mm 999.9km Northwest  1.1m/s
08:00 Sunny 24°F 48.9% 0mm 999.9km Northwest  0.9m/s
11:00 Sunny 37°F 44.2% 0mm 999.9km Northeast  1.3m/s
14:00 Sunny 39°F 41% 0mm 999.9km Southeast  1.5m/s
17:00 Sunny 36°F 39.1% 0mm 999.9km Southeast  1.5m/s
20:00 Sunny 31°F 37.1% 0mm 999.9km Southeast  0.3m/s
23:00 Sunny 28°F 54.7% 0mm 999.9km Southwest  0.4m/s
02:00 Sunny 25°F 54.8% 0mm 999.9km Southwest  0.6m/s
05:00 Sunny 25°F 55.1% 0mm 999.9km Southwest  1.1m/s
08:00 Sunny 32°F 59.2% 0mm 999.9km Northwest  0.3m/s
11:00 Cloudy 38°F 50.2% 0mm 999.9km Southwest  1.1m/s
14:00 Cloudy 41°F 46.4% 0mm 999.9km Southeast  2.3m/s
17:00 Cloudy 36°F 49% 0mm 999.9km Southeast  0.6m/s
20:00 Cloudy 33°F 42.4% 0mm 999.9km Southwest  0.6m/s
23:00 Cloudy 27°F 75% 0mm 999.9km Northwest  0.3m/s
02:00 Cloudy 26°F 74.5% 0mm 999.9km Southwest  0.3m/s
05:00 Cloudy 26°F 74.1% 0mm 999.9km Northwest  0.7m/s
08:00 Cloudy 25°F 64% 0mm 999.9km Northwest  0.5m/s
11:00 Sunny 36°F 55.2% 0mm 999.9km Northwest  1.0m/s
14:00 Sunny 42°F 55.6% 0mm 999.9km Northwest  2.3m/s
17:00 Sunny 41°F 52% 0mm 999.9km Northwest  1.5m/s
20:00 Sunny 34°F 48.3% 0mm 999.9km Northwest  1.6m/s
23:00 Sunny 30°F 57.2% 0mm 999.9km Northwest  1.0m/s
02:00 Sunny 27°F 62.2% 0mm 999.9km Northwest  1.5m/s
05:00 Sunny 28°F 54.5% 0mm 999.9km Northwest  0.8m/s
08:00 Sunny 33°F 51.9% 0mm 999.9km Northwest  0.9m/s
11:00 Sunny 35°F 49.4% 0mm 999.9km Southwest  1.9m/s
14:00 Sunny 41°F 48.3% 0mm 999.9km Southwest  2.4m/s
17:00 Sunny 36°F 44.6% 0mm 999.9km Southwest  0.7m/s
20:00 Sunny 28°F 41% 0mm 999.9km Southwest  0.6m/s
23:00 Sunny 28°F 50.6% 0mm 999.9km Southwest  0.9m/s
02:00 Sunny 27°F 59.7% 0mm 999.9km Southwest  0.5m/s
05:00 Sunny 27°F 50.6% 0mm 999.9km Northwest  1.0m/s